| time (UTC) | temp F | wind direction | speed MPH | gust MPH | rain 1hr in | rain 24hr in | rain mn in | humidity % | barometer mb |
| 20260508043057 | 72 | 207 | 1.0 | 4.0 | 0.00 | 0.00 | 0.00 | 25 | 1006.1 |
| 20260508041603 | 72 | 207 | 0.0 | 4.0 | 0.00 | 0.00 | 0.00 | 24 | 1006.2 |
| 20260508040106 | 73 | 209 | 0.0 | 3.0 | 0.00 | 0.00 | 0.00 | 22 | 1006.0 |
| 20260508034557 | 74 | 210 | 1.0 | 4.0 | 0.00 | 0.00 | 0.00 | 19 | 1005.9 |
| 20260508033101 | 75 | 210 | 0.0 | 4.0 | 0.00 | 0.00 | 0.00 | 18 | 1005.6 |
| 20260508031554 | 76 | 210 | 0.0 | 3.0 | 0.00 | 0.00 | 0.00 | 17 | 1005.4 |
| 20260508030109 | 76 | 211 | 0.0 | 1.0 | 0.00 | 0.00 | 0.00 | 17 | 1005.2 |
| 20260508024601 | 76 | 211 | 0.0 | 0.0 | 0.00 | 0.00 | 0.00 | 16 | 1005.1 |
| 20260508023053 | 77 | 210 | 0.0 | 0.0 | 0.00 | 0.00 | 0.00 | 16 | 1004.9 |
| 20260508021552 | 78 | 210 | 0.0 | 1.0 | 0.00 | 0.00 | 0.00 | 15 | 1004.7 |
| 20260508020050 | 78 | 211 | 0.0 | 0.0 | 0.00 | 0.00 | 0.00 | 15 | 1004.5 |
| 20260508014550 | 79 | 211 | 0.0 | 2.0 | 0.00 | 0.00 | 0.00 | 15 | 1004.4 |
| 20260508013050 | 79 | 211 | 0.0 | 5.0 | 0.00 | 0.00 | 0.00 | 14 | 1004.4 |
| 20260508011601 | 80 | 219 | 0.0 | 5.0 | 0.00 | 0.00 | 0.00 | 15 | 1004.4 |
| 20260508010058 | 80 | 219 | 0.0 | 3.0 | 0.00 | 0.00 | 0.00 | 14 | 1004.4 |
| 20260508004557 | 81 | 219 | 2.0 | 5.0 | 0.00 | 0.00 | 0.00 | 14 | 1004.5 |
| 20260508003051 | 81 | 219 | 0.0 | 4.0 | 0.00 | 0.00 | 0.00 | 14 | 1004.4 |
| 20260508001547 | 81 | 219 | 2.0 | 6.0 | 0.00 | 0.00 | 0.00 | 14 | 1004.4 |
| 20260508000045 | 82 | 219 | 2.0 | 6.0 | 0.00 | 0.00 | 0.00 | 14 | 1004.5 |
| 20260507234543 | 83 | 219 | 3.0 | 6.0 | 0.00 | 0.00 | 0.00 | 13 | 1004.8 |
| 20260507233041 | 82 | 207 | 1.0 | 5.0 | 0.00 | 0.00 | 0.00 | 14 | 1004.9 |
| 20260507231541 | 82 | 207 | 2.0 | 8.0 | 0.00 | 0.00 | 0.00 | 14 | 1005.1 |
| 20260507230038 | 82 | 207 | 1.0 | 6.0 | 0.00 | 0.00 | 0.00 | 14 | 1005.4 |
| 20260507224539 | 83 | 207 | 0.0 | 6.0 | 0.00 | 0.00 | 0.00 | 14 | 1005.5 |
| 20260507223033 | 83 | 207 | 0.0 | 3.0 | 0.00 | 0.00 | 0.00 | 15 | 1005.6 |
| 20260507221534 | 81 | 207 | 1.0 | 7.0 | 0.00 | 0.00 | 0.00 | 15 | 1005.8 |
| 20260507220029 | 80 | 206 | 3.0 | 7.0 | 0.00 | 0.00 | 0.00 | 15 | 1005.9 |
| 20260507214528 | 81 | 160 | 5.0 | 11.0 | 0.00 | 0.00 | 0.00 | 15 | 1006.1 |
| 20260507213031 | 82 | 61 | 2.0 | 5.0 | 0.00 | 0.00 | 0.00 | 16 | 1006.2 |
| 20260507211525 | 80 | 63 | 4.0 | 9.0 | 0.00 | 0.00 | 0.00 | 16 | 1006.6 |
| 20260507210020 | 80 | 63 | 0.0 | 7.0 | 0.00 | 0.00 | 0.00 | 18 | 1006.9 |
| 20260507204519 | 79 | 55 | 1.0 | 7.0 | 0.00 | 0.00 | 0.00 | 20 | 1007.0 |
| 20260507203018 | 79 | 55 | 4.0 | 10.0 | 0.00 | 0.00 | 0.00 | 19 | 1007.0 |
| 20260507201515 | 79 | 21 | 1.0 | 10.0 | 0.00 | 0.00 | 0.00 | 19 | 1007.3 |
| 20260507200022 | 79 | 17 | 0.0 | 9.0 | 0.00 | 0.00 | 0.00 | 19 | 1007.8 |
| 20260507194510 | 78 | 17 | 0.0 | 8.0 | 0.00 | 0.00 | 0.00 | 20 | 1008.0 |
| 20260507193008 | 78 | 17 | 0.0 | 8.0 | 0.00 | 0.00 | 0.00 | 21 | 1008.2 |
| 20260507191507 | 77 | 15 | 1.0 | 8.0 | 0.00 | 0.00 | 0.00 | 20 | 1008.5 |
| 20260507190010 | 76 | 15 | 0.0 | 8.0 | 0.00 | 0.00 | 0.00 | 20 | 1008.9 |
| 20260507184600 | 76 | 16 | 0.0 | 8.0 | 0.00 | 0.00 | 0.00 | 20 | 1009.0 |
| 20260507183100 | 75 | 14 | 0.0 | 5.0 | 0.00 | 0.00 | 0.00 | 21 | 1009.2 |
| 20260507181553 | 74 | 15 | 0.0 | 5.0 | 0.00 | 0.00 | 0.00 | 22 | 1009.5 |
| 20260507180053 | 74 | 15 | 1.0 | 8.0 | 0.00 | 0.00 | 0.00 | 21 | 1009.7 |
| 20260507174548 | 73 | 15 | 0.0 | 6.0 | 0.00 | 0.00 | 0.00 | 23 | 1009.8 |
| 20260507173052 | 73 | 14 | 1.0 | 9.0 | 0.00 | 0.00 | 0.00 | 23 | 1009.9 |
| 20260507171542 | 72 | 11 | 2.0 | 6.0 | 0.00 | 0.00 | 0.00 | 24 | 1010.0 |
| 20260507170036 | 71 | 10 | 0.0 | 6.0 | 0.00 | 0.00 | 0.00 | 24 | 1010.3 |